Kuchera_Ratio
0.0 0.0 0.0 0.0 0.0 0.0 0.0 0.0 0.0 0.0 0.0 0.0 0.0 0.0 0.0 0.0 0.0 0.0 1.4 0.0 2.4 8.6 8.3 5.4 3.6 8.7 9.5 9.9 12.9 11.7 12.1 12.7 12.7 14.5 14.5 14.8 15.3 15.4 16.8 15.4 16.4 15.6 16.6 16.5 14.8 16.7 18.6 12.1 11.0 14.7 13.5 11.5 11.3 11.3
0.0 0.0 0.0 0.0 0.0 0.0 0.0 0.0 0.0 0.0 0.0 0.0 0.0 0.0 0.0 0.0 0.0 0.0 3.6 0.0 0.0 4.5 8.0 3.5 3.2 3.2 3.5 1.8 8.3 11.0 10.1 11.8 10.4 13.2 14.6 14.7 16.1 17.7 18.0 19.8 15.2 17.2 14.7 16.6 15.5 15.8 12.7 11.6 9.6 9.6 8.7 10.7 11.5 11.1
0.0 0.0 0.0 0.0 0.0 0.0 0.0 0.0 0.0 0.0 0.0 0.0 0.0 0.0 0.0 0.0 0.0 0.0 2.3 1.7 2.2 7.1 8.4 7.7 8.4 2.7 1.4 2.8 1.4 10.5 11.3 7.3 10.2 10.1 13.3 14.8 17.6 15.9 18.1 18.1 16.7 15.3 13.9 15.5 14.3 15.4 13.0 12.1 10.1 6.5 5.9 5.7 5.4 6.0
0.0 0.0 0.0 0.0 0.0 0.0 0.0 0.0 0.0 0.0 0.0 0.0 0.0 0.0 0.0 0.0 0.0 0.0 3.2 2.9 2.4 5.6 12.9 12.3 2.4 6.6 2.8 2.2 2.1 2.1 3.5 7.5 9.1 10.6 13.6 14.9 15.4 14.3 16.8 16.7 16.8 15.4 14.3 15.9 16.4 14.6 13.4 13.1 12.3 7.2 6.9 7.3 8.0 7.9
0.0 0.0 0.0 0.0 0.0 0.0 0.0 0.0 0.0 0.0 0.0 0.0 0.0 0.0 0.0 0.0 0.0 0.0 2.3 3.6 1.7 4.2 13.7 13.5 8.3 6.2 6.0 4.1 4.4 5.0 5.9 8.7 12.3 13.5 15.5 15.7 14.6 15.7 17.4 18.0 18.1 15.3 15.2 16.6 19.2 12.8 13.5 13.1 11.6 10.2 12.3 11.9 10.6 11.2
0.0 0.0 0.0 0.0 0.0 0.0 0.0 0.0 0.0 0.0 0.0 0.0 0.0 0.0 0.0 0.0 0.0 0.0 5.4 2.7 2.1 0.3 11.4 15.4 9.8 10.0 8.8 7.8 8.6 9.3 9.7 11.5 12.7 13.0 14.8 14.6 13.6 14.8 18.6 21.4 15.2 14.0 12.9 13.0 13.6 11.7 13.5 11.6 10.5 9.5 12.1 11.6 11.5 12.1
0.0 0.0 0.0 0.0 0.0 0.0 0.0 0.0 0.0 0.0 0.0 0.0 0.0 0.0 0.0 0.0 0.0 6.4 8.7 4.7 0.0 2.5 11.1 17.1 15.5 12.1 10.1 10.2 12.3 12.4 12.3 13.3 12.9 14.5 15.6 15.7 15.2 15.0 18.8 21.5 14.7 13.4 13.7 13.2 12.5 12.9 14.6 12.2 14.2 11.6 12.1 11.5 9.8 10.8
0.0 0.0 0.0 0.0 0.0 0.0 0.0 0.0 0.0 0.0 0.0 0.0 0.0 0.0 0.0 0.0 0.0 6.2 3.9 0.0 2.3 5.7 10.0 17.2 17.6 14.8 10.3 14.3 15.0 13.8 14.9 15.1 15.6 15.9 15.7 16.6 16.4 17.7 19.8 16.6 15.0 14.8 13.1 13.2 12.7 12.7 13.1 13.0 12.9 13.1 12.5 12.6 13.6 13.4
0.0 0.0 0.0 0.0 0.0 0.0 0.0 0.0 0.0 0.0 0.0 0.0 0.0 0.0 1.3 6.0 8.6 7.9 0.0 0.8 4.3 7.3 14.7 16.3 17.9 18.6 12.9 15.3 14.9 15.6 15.7 18.6 15.5 18.9 17.3 15.7 19.0 21.0 17.2 15.5 15.3 15.5 15.8 15.5 14.1 14.0 14.3 15.0 15.0 14.3 14.1 13.9 14.5 14.0
0.0 0.0 0.0 0.0 0.0 0.0 0.0 0.0 0.0 0.0 0.0 0.0 2.1 7.7 13.1 8.3 0.0 0.6 7.3 10.2 12.5 14.1 14.5 17.2 15.8 18.2 15.3 15.8 17.1 16.7 17.4 19.1 20.5 18.0 15.0 17.7 18.7 14.5 14.9 13.7 13.5 13.8 13.0 14.1 17.7 17.1 15.0 15.7 15.0 14.9 14.8 13.7 13.7 13.6
0.0 0.0 0.0 0.0 0.0 0.0 0.0 0.0 0.0 0.0 0.0 4.8 12.5 13.4 10.1 3.1 9.9 14.4 15.6 16.7 17.5 17.9 16.0 17.1 16.7 18.1 15.0 18.1 18.4 16.5 19.4 20.1 23.5 20.3 19.4 20.1 19.5 17.3 15.8 13.8 12.6 13.3 14.1 14.7 15.3 15.4 14.7 15.2 15.9 15.6 14.9 13.6 13.0 13.1
0.0 0.0 0.0 0.0 0.0 0.0 0.0 0.0 0.0 2.8 7.7 6.9 10.5 9.8 11.8 15.0 15.2 16.9 18.9 19.1 18.8 19.4 17.7 16.8 17.0 16.7 16.7 15.6 18.2 18.0 20.0 21.0 23.6 19.0 21.2 23.3 20.3 15.8 16.5 14.8 14.0 14.8 15.4 15.9 15.8 16.6 15.8 15.1 14.9 15.0 14.9 14.6 13.7 12.9
0.0 0.0 0.0 0.0 0.0 0.0 0.0 0.0 0.0 0.0 3.3 7.0 10.7 14.4 15.1 17.9 18.3 21.0 21.4 21.6 19.9 18.8 17.8 17.3 18.6 17.1 17.2 17.1 19.4 19.4 23.2 23.6 18.1 22.4 23.1 21.2 16.1 16.2 16.2 14.8 15.7 15.9 16.4 17.0 16.6 15.5 15.3 15.3 14.4 14.8 15.1 14.1 13.9 13.7
0.0 0.0 0.0 0.0 0.0 0.0 0.0 0.0 0.0 3.3 5.9 13.3 14.4 17.7 18.8 18.7 19.1 18.9 19.2 19.2 18.3 17.1 16.6 16.2 18.1 17.4 18.9 19.3 20.3 22.3 21.6 21.0 24.1 24.5 23.2 20.6 16.6 17.7 15.6 16.1 17.2 17.6 17.7 17.5 16.9 16.4 16.2 15.8 15.6 14.6 14.1 13.8 13.8 13.8
0.0 0.0 0.0 0.0 0.0 0.0 0.0 0.0 0.4 5.1 11.2 14.4 15.1 19.6 18.9 19.5 19.4 19.3 19.1 18.0 17.7 17.1 16.0 16.6 18.8 18.9 19.5 20.2 21.2 22.5 24.1 25.0 24.6 23.4 20.3 17.5 16.9 16.7 17.3 17.2 17.8 18.0 17.9 18.3 17.2 16.8 16.2 15.8 15.8 15.4 13.9 13.7 13.3 12.8
0.0 0.0 0.0 0.0 0.0 0.0 0.0 3.0 5.9 10.4 14.7 16.1 17.8 18.9 19.6 19.3 19.6 18.2 17.4 17.2 16.8 16.6 16.6 16.9 19.4 20.1 20.9 21.6 24.0 23.6 24.7 24.6 22.7 20.3 18.1 17.9 18.1 17.9 18.3 17.6 17.4 17.6 17.8 17.7 17.8 17.1 15.9 16.0 15.9 15.3 14.4 13.6 12.8 12.3
0.0 4.7 0.0 0.0 0.0 0.0 0.1 6.9 11.2 14.7 16.5 17.5 19.6 19.0 18.6 18.3 18.7 18.0 17.4 17.3 17.2 17.2 19.5 19.5 20.0 22.0 22.1 24.3 24.5 22.9 23.8 20.2 19.3 18.5 18.4 18.0 18.7 18.9 18.3 18.1 17.2 16.9 17.6 18.0 18.1 16.8 16.1 15.4 15.2 15.2 14.8 13.6 12.9 12.4
4.4 0.0 0.0 0.0 4.4 5.4 11.0 13.6 15.1 16.9 18.6 19.6 19.6 19.4 19.1 18.9 19.1 18.7 18.2 17.7 17.8 17.5 18.0 19.9 20.4 21.7 23.4 23.9 23.6 19.7 19.4 19.4 19.3 19.5 19.0 18.5 18.4 18.9 17.9 18.3 17.5 17.7 18.1 17.9 17.3 16.6 16.2 15.9 15.7 14.9 14.8 13.7 13.3 13.3
1.9 0.9 0.0 0.0 5.5 10.5 15.0 16.1 16.5 18.7 20.0 19.1 16.2 17.0 15.9 16.1 18.1 18.2 17.9 17.9 17.7 17.9 18.2 19.6 21.1 21.7 20.6 20.1 20.1 20.4 20.9 21.2 21.1 19.9 19.3 18.5 19.0 19.5 18.9 18.6 18.8 18.2 17.7 17.9 17.4 16.5 15.8 14.8 14.7 15.1 14.7 14.3 14.7 14.4
0.0 0.0 2.0 3.6 6.3 12.7 16.2 18.2 16.0 18.8 19.6 20.1 19.8 19.6 19.5 19.5 19.9 17.1 16.8 17.5 17.4 19.4 19.9 21.8 21.5 20.8 20.3 20.5 19.4 19.6 19.4 19.9 21.3 22.1 20.6 19.6 18.6 19.2 19.7 19.0 18.2 17.9 18.2 17.2 16.3 14.0 14.9 15.3 15.5 15.4 14.5 14.3 16.5 16.1
7.6 8.7 6.8 7.2 12.8 14.4 17.2 19.3 19.6 19.8 19.3 20.1 20.1 19.9 20.1 20.5 20.8 20.8 21.0 20.2 21.0 20.5 21.6 19.8 20.0 19.9 18.8 18.9 19.0 19.7 20.5 21.0 21.9 22.0 21.9 21.9 19.6 19.0 18.4 18.5 18.7 18.0 17.6 17.2 17.0 16.0 15.3 16.6 16.0 15.2 15.6 16.5 16.1 15.5
12.4 6.7 11.8 13.0 14.8 16.8 18.2 19.6 20.0 20.3 20.4 20.5 20.3 20.2 20.7 21.4 21.7 21.7 22.1 21.8 21.1 20.2 20.3 20.7 19.9 19.9 20.5 20.9 20.5 20.6 21.1 21.6 21.6 21.2 18.1 18.2 20.9 20.1 19.4 19.4 19.0 18.5 17.9 17.4 16.4 16.5 16.5 15.9 15.4 15.2 16.1 16.7 16.5 16.8
11.9 12.3 13.9 14.8 16.4 17.3 20.3 19.9 20.1 20.6 20.5 20.5 20.6 21.1 21.6 22.0 22.4 22.5 22.8 21.6 20.8 19.7 19.2 19.3 18.7 18.6 19.4 19.1 19.4 20.4 20.2 20.8 21.0 20.5 20.0 19.9 19.7 19.6 19.4 19.0 18.0 18.3 18.5 17.1 16.1 17.0 17.2 14.7 14.8 16.8 16.4 16.9 16.9 17.4
13.0 15.4 16.7 17.3 18.0 20.2 20.3 20.5 20.7 20.7 20.6 20.7 21.0 21.4 22.1 22.5 22.9 23.1 23.1 21.6 20.3 18.5 18.5 18.6 18.5 19.6 19.0 18.9 19.9 19.8 19.4 19.3 20.0 19.9 19.2 20.2 20.6 20.1 18.7 18.0 17.5 17.6 16.8 16.3 16.9 17.2 16.7 15.6 15.4 16.5 16.8 17.4 17.3 17.5
16.2 19.1 18.8 20.2 20.4 20.4 20.6 20.7 20.8 20.7 20.9 21.1 21.6 22.3 22.9 23.1 23.4 23.5 23.3 21.3 19.9 19.1 19.0 18.9 19.4 19.9 21.2 20.9 19.9 19.6 18.4 19.3 20.5 20.8 19.3 19.1 19.3 18.7 18.4 17.6 17.5 17.0 16.3 17.5 18.1 17.6 17.2 16.6 16.5 17.0 17.0 17.1 17.5 17.5
19.8 20.6 20.0 20.4 20.6 20.1 20.7 20.7 20.9 21.2 21.5 21.9 22.2 22.8 23.4 23.5 23.8 23.5 22.3 22.0 20.6 19.9 20.0 20.6 21.2 21.4 21.0 20.1 20.9 20.5 19.7 18.3 18.9 20.1 19.1 17.9 17.8 18.7 19.4 19.2 18.5 17.5 16.4 16.6 16.8 17.3 16.9 16.5 16.4 16.3 16.1 15.5 14.8 17.5
20.3 20.7 20.8 19.8 20.9 21.0 21.1 21.4 21.7 21.9 21.9 22.1 22.3 22.7 23.2 25.1 25.0 22.2 19.8 20.0 20.5 19.5 19.3 19.6 20.1 20.8 21.0 20.3 19.1 18.2 17.7 17.4 17.9 18.1 17.0 16.3 16.8 16.8 17.2 17.8 18.3 17.1 15.6 15.5 15.6 16.0 16.8 17.1 17.3 17.5 17.8 17.5 17.5 17.6
20.7 20.9 20.8 21.1 21.1 21.4 21.3 21.6 21.8 22.0 22.1 22.2 22.4 22.7 23.0 23.3 23.4 21.0 20.3 19.4 19.6 19.6 20.0 19.5 18.9 18.9 19.3 19.2 18.5 17.8 17.4 17.1 16.0 16.2 15.9 16.0 16.3 16.7 15.9 15.2 15.1 14.2 15.9 15.9 16.1 16.2 16.5 17.0 17.6 17.9 18.3 18.5 18.6 17.5
21.2 21.2 21.1 21.3 21.5 21.8 21.9 22.0 22.1 22.2 22.4 22.6 22.6 22.6 22.9 21.5 20.9 21.0 19.9 19.9 19.7 20.5 21.0 21.0 20.0 18.9 18.6 18.1 17.4 16.9 17.7 18.0 18.4 19.5 20.1 20.3 19.6 18.9 16.8 15.6 15.7 15.6 15.5 15.6 14.3 16.2 17.4 17.7 18.2 18.1 18.3 18.5 18.7 18.5
21.7 21.8 21.7 21.7 21.7 21.9 21.9 22.0 22.3 22.6 23.0 23.4 23.7 23.7 23.2 21.7 20.4 19.6 20.4 20.9 21.8 22.2 21.4 21.0 20.0 20.2 20.4 20.4 19.9 18.4 17.1 17.8 18.1 19.0 20.1 20.6 20.2 18.4 17.4 17.1 16.8 15.7 14.9 14.8 15.3 15.2 13.8 16.1 16.2 17.9 18.3 18.8 18.7 18.5
22.1 22.1 22.1 22.2 22.1 22.2 22.4 22.6 22.7 22.8 23.1 23.3 23.7 24.0 24.1 23.7 20.9 20.1 21.0 21.3 21.4 21.3 21.2 20.9 20.6 20.1 20.4 20.6 20.6 20.1 18.8 17.4 18.0 17.7 17.6 18.1 18.2 18.1 17.8 17.5 17.1 16.7 16.6 16.8 17.0 17.3 17.7 18.1 18.4 18.5 18.6 18.6 18.9 18.7
22.4 22.5 22.5 22.5 22.6 22.7 22.7 22.9 23.2 23.3 23.5 23.6 23.8 24.2 24.1 24.1 24.0 21.8 21.2 21.6 22.0 22.1 21.0 21.3 21.3 20.7 20.1 19.4 18.0 16.5 14.7 16.9 17.7 18.1 18.3 18.4 18.6 18.4 18.0 17.5 17.0 17.0 17.3 17.5 17.6 17.7 17.6 17.8 18.2 18.3 18.2 18.4 18.7 18.7
22.7 22.9 23.0 23.1 23.1 22.9 23.0 23.1 23.3 23.4 23.6 23.7 23.9 23.9 24.1 24.2 24.3 22.6 20.9 21.1 22.4 22.8 22.3 20.8 20.2 19.9 19.3 18.4 17.0 16.3 14.8 15.0 13.0 11.8 12.5 13.4 14.2 16.0 17.6 17.6 17.5 17.3 17.0 17.0 17.3 17.4 17.7 17.9 18.0 18.2 18.3 18.3 18.4 18.5